Regional Weather Roundup
Issued by NWS

Home | Current Version | Previous Version | Text Only | Print | Product List | Glossary On
Versions: 1 2 3 4 5 6 7 8 9 10 11 12 13 14 15 16 17 18 19 20 21 22 23 24 25 26 27 28 29 30 31 32 33 34 35 36 37 38 39 40 41 42 43 44 45 46 47 48 49 50
000
ASUS42 KKEY 291310
RWRKEY

FLORIDA REGIONAL WEATHER ROUNDUP FOR THE FLORIDA KEYS
NATIONAL WEATHER SERVICE KEY WEST FLORIDA
900 AM EDT FRI MAY 29 2015

...SOUTH FLORIDA AND THE KEYS...

CITY           SKY/WX    TMP DP  RH WIND       PRES   REMARKS
FORT MYERS     SUNNY     75  65  70 E6        30.07R
SW REGIONAL AP SUNNY     76  63  64 E6        30.08R SMOKE
NAPLES         SUNNY     77  65  66 E7        30.06R
MIAMI          PTSUNNY   81  66  60 NE13      30.05S
WEST KENDALL   SUNNY     81  67  62 E9        30.05S
HOMESTEAD      MOSUNNY   81  67  61 E10       30.04S
MARATHON       SUNNY     82  66  58 E12       30.04R
BOCA CHICA NAS PTSUNNY   80  68  66 E14       30.04R
KEY WEST INTL  MOSUNNY   80  69  69 E12       30.04R

...INTERNATIONAL WEATHER...

CITY           SKY/WX    TMP DP  RH WIND       PRES   REMARKS
NASSAU BAHAMAS PTSUNNY   81  70  69 E6        30.05R
CANCUN MEXICO  MOSUNNY   84  72  65 NE12      29.97F
COZUMEL MEXICO SUNNY     79  72  78 CALM      29.96R

ADJACENT COASTAL WATERS...

STATION/POSITION TIME  SKY/WX   TEMP    WIND        PRES    WAVE
                                AIR SEA DIR/SP/G            HT/PER
                 (UTC)          (F)     (DEG/KT/KT) (MB)    (FT/S)
PULASKI SHOAL LI 1200            80     100/ 15/ 17 1016.3R
SAND KEY         1250            78      70/ 17/ 19 1017.0R
SOMBRERO KEY     1300            80     100/ 16/ 17 1017.8R
LONG KEY         1200            79 80   80/ 12/ 13 1017.7R
MOLASSES REEF    1300            79 81   90/ 11/ 12 1017.4R
FOWEY ROCKS      NOT AVBL

$$


USA.gov is the U.S. government's official web portal to all federal, state and local government web resources and services.